HR2RCH-13 Weather Reports


time (UTC)temp
F
wind
direction
speed
knots
gust
knots
rain 1hr
in
rain 24hr
in
rain mn
in
humidity
%
barometer
mb
20260507101549 0 0 0.0 0.9 0.00 0.00 0.00 1008.2
20260507100047 0 106 0.0 0.9 0.00 0.00 0.00 1008.1
20260507094544 0 106 0.0 0.9 0.00 0.00 0.00 1007.8
20260507093042 0 0 0.0 0.9 0.00 0.00 0.00 1007.9
20260507091608 0 108 0.0 0.9 0.00 0.00 0.00 1007.9
20260507090050 0 0 0.0 0.9 0.00 0.00 0.00 1007.9
20260507084555 0 0 0.0 0.9 0.00 0.00 0.00 1008.0
20260507083053 0 0 0.0 0.9 0.00 0.00 0.00 1008.1
20260507081550 0 108 0.0 0.9 0.00 0.00 0.00 1008.1
20260507080055 0 77 0.0 0.9 0.00 0.00 0.00 1008.1
20260507074550 0 0 0.0 1.7 0.00 0.00 0.00 1008.2
20260507073051 0 0 0.0 0.9 0.00 0.00 0.00 1008.6
20260507071546 0 0 0.0 0.9 0.00 0.00 0.00 1008.8
20260507070058 0 0 0.0 0.9 0.00 0.00 0.00 1008.8
20260507064548 0 0 0.0 0.9 0.00 0.00 0.00 1008.9
20260507063054 0 76 0.0 2.6 0.00 0.00 0.00 1009.1
20260507061544 0 76 0.0 2.6 0.00 0.00 0.00 1009.2
20260507054552 0 81 0.9 1.7 0.00 0.00 0.00 1009.7
20260507053051 0 91 0.9 3.5 0.00 0.00 0.00 1009.9
20260507051545 0 58 0.9 2.6 0.00 0.00 0.00 1010.0
20260507050045 0 103 0.9 3.5 0.00 0.00 0.00 1010.2
20260507044548 0 84 0.9 2.6 0.00 0.00 0.00 1010.2
20260507043047 0 109 0.9 3.5 0.00 0.00 0.00 1010.2
20260507041547 0 115 0.9 3.5 0.00 0.00 0.00 1010.3
20260507040045 0 86 0.9 2.6 0.00 0.00 0.00 1010.2
20260507034554 0 111 1.7 3.5 0.00 0.00 0.00 1010.1
20260507033049 0 131 1.7 5.2 0.00 0.00 0.00 1009.9
20260507031547 0 184 1.7 7.0 0.00 0.00 0.00 1009.9
20260507030047 0 124 2.6 6.1 0.00 0.00 0.00 1009.8
20260507024559 0 172 2.6 5.2 0.00 0.00 0.00 1009.6
20260507023050 0 162 2.6 6.1 0.00 0.00 0.00 1009.6
20260507021552 0 176 2.6 4.3 0.00 0.00 0.00 1009.5
20260507020052 0 121 2.6 7.0 0.00 0.00 0.00 1009.3
20260507014553 0 153 2.6 7.8 0.00 0.00 0.00 1009.1
20260507013052 0 157 0.9 5.2 0.00 0.00 0.00 1009.0
20260507011551 0 120 2.6 6.1 0.00 0.00 0.00 1008.8
20260507010105 0 124 4.3 7.8 0.00 0.00 0.00 1008.5
20260507004549 0 221 2.6 7.8 0.00 0.00 0.00 1008.2
20260507003052 0 143 1.7 8.7 0.00 0.00 0.00 1007.9
20260507001555 0 236 2.6 8.7 0.00 0.00 0.00 1007.8
20260507000051 0 211 2.6 7.8 0.00 0.00 0.00 1007.6
20260506234545 0 188 4.3 7.8 0.00 0.00 0.00 1007.3
20260506233057 0 250 2.6 7.8 0.00 0.00 0.00 1007.2
20260506231544 0 266 3.5 9.6 0.00 0.00 0.00 1007.1
20260506230052 0 140 4.3 12.2 0.00 0.00 0.00 1007.0
20260506224553 0 248 3.5 9.6 0.00 0.00 0.00 1006.9
20260506223045 0 254 4.3 9.6 0.00 0.00 0.00 1006.8
20260506221548 0 240 4.3 10.4 0.00 0.00 0.00 1006.8
20260506220050 0 195 3.5 10.4 0.00 0.00 0.00 1006.7
20260506214547 0 229 3.5 10.4 0.00 0.00 0.00 1006.7
20260506213049 0 171 4.3 8.7 0.00 0.00 0.00 1006.6
20260506211553 0 283 3.5 10.4 0.00 0.00 0.00 1006.7
20260506210048 0 239 3.5 7.0 0.00 0.00 0.00 1006.7
20260506204546 0 226 4.3 7.8 0.00 0.00 0.00 1006.8
20260506203051 0 219 2.6 8.7 0.00 0.00 0.00 1007.0
20260506201549 0 145 4.3 8.7 0.00 0.00 0.00 1007.1
20260506200044 0 164 4.3 11.3 0.00 0.00 0.00 1007.2
20260506194550 0 266 3.5 13.9 0.00 0.00 0.00 1007.5
20260506193052 0 255 7.0 13.0 0.00 0.00 0.00 1007.5
20260506191548 0 268 3.5 8.7 0.00 0.00 0.00 1007.8
20260506190045 0 259 6.1 10.4 0.00 0.00 0.00 1008.1
20260506184550 0 219 3.5 7.8 0.00 0.00 0.00 1008.5
20260506183047 0 261 4.3 10.4 0.00 0.00 0.00 1008.8
20260506181545 0 133 2.6 7.0 0.00 0.00 0.00 1009.0
20260506180047 0 282 1.7 6.1 0.00 0.00 0.00 1009.2
20260506174557 0 318 1.7 3.5 0.00 0.00 0.00 1009.3
20260506173048 0 257 1.7 8.7 0.00 0.00 0.00 1009.5
20260506171552 0 276 2.6 6.1 0.00 0.00 0.00 1009.7
20260506170047 0 314 3.5 7.0 0.00 0.00 0.00 1010.0
20260506164552 0 276 2.6 6.1 0.00 0.00 0.00 1010.1
20260506163052 0 329 2.6 5.2 0.00 0.00 0.00 1010.2
20260506161547 0 172 2.6 5.2 0.00 0.00 0.00 1010.3
20260506160049 0 275 1.7 6.1 0.00 0.00 0.00 1010.5
20260506154551 0 260 1.7 5.2 0.00 0.00 0.00 1010.6
20260506153052 0 268 1.7 5.2 0.00 0.00 0.00 1010.7
20260506151547 0 261 2.6 4.3 0.00 0.00 0.00 1010.7
20260506150059 0 294 0.9 3.5 0.00 0.00 0.00 1010.8
20260506144609 0 184 0.9 3.5 0.00 0.00 0.00 1010.8
20260506143051 0 257 0.9 4.3 0.00 0.00 0.00 1010.8
20260506141546 0 0 0.0 2.6 0.00 0.00 0.00 1010.8
20260506140104 0 262 0.9 2.6 0.00 0.00 0.00 1010.8
20260506134546 0 252 0.9 1.7 0.00 0.00 0.00 1010.7
20260506133102 0 163 0.0 4.3 0.00 0.00 0.00 1010.6
20260506131547 0 229 0.0 1.7 0.00 0.00 0.00 1010.6
20260506130124 0 0 0.9 1.7 0.00 0.00 0.00 1010.4
20260506124552 0 0 0.0 0.9 0.00 0.00 0.00 1010.3
20260506123048 0 82 0.0 1.7 0.00 0.00 0.00 1010.3
20260506121553 0 60 0.0 0.9 0.00 0.00 0.00 1010.2
20260506120047 0 60 0.0 2.6 0.00 0.00 0.00 1010.2
20260506114547 0 53 0.9 2.6 0.00 0.00 0.00 1010.1
20260506113050 0 0 0.0 1.7 0.00 0.00 0.00 1009.8
20260506111547 0 72 0.0 0.9 0.00 0.00 0.00 1009.6
20260506110053 0 90 0.0 1.7 0.00 0.00 0.00 1009.4
20260506104554 0 109 0.0 0.9 0.00 0.00 0.00 1009.3
20260506103044 0 0 0.0 0.9 0.00 0.00 0.00 1009.0